{"data":{"norad_id":53602,"epoch":"2026-05-24T17:13:37.685856Z","epoch_age_seconds":96118,"freshness":"FRESH","line1":"1 53602U 22104Q   26144.71779729  .00000548  00000+0  52505-4 0  9998","line2":"2 53602  53.2157 257.7563 0001329  88.3903 271.7241 15.08840382207161","mean_motion":15.08840382,"eccentricity":0.0001329,"inclination_deg":53.2157,"raan_deg":257.7563,"arg_perigee_deg":88.3903,"mean_anomaly_deg":271.7241,"bstar":5.2505e-5,"rev_number":20716,"period_min":95.437530515405,"perigee_km":538.82283519466,"apogee_km":540.66160749169,"semimajor_km":6917.8792213432,"source":"CELESTRAK","updated_at":"2026-05-25T13:38:17.475888Z"}}